Location: Steilacoom
(47.1700°N, 122.5700°W)
Time: 19:00:40
(UTC-08:00)

ISS - Visible Passes

Search period start: 10 December 2018 00:00
Search period end: 20 December 2018 00:00
Orbit: 401 x 408 km, 51.6° (Epoch: 12 December)

Date Brightness Start Highest point End Pass type
(mag) Time Alt. Az. Time Alt. Az. Time Alt. Az.
10 Dec -3.5 17:46:48 10° WNW 17:50:02 64° SSW 17:52:34 15° SE visible
10 Dec -0.4 19:25:01 10° WSW 19:25:16 10° WSW 19:25:16 10° WSW visible
11 Dec -3.9 16:54:35 10° WNW 16:57:52 82° NNE 17:01:08 10° ESE visible
11 Dec -1.2 18:31:38 10° W 18:34:01 19° SW 18:36:06 11° S visible
12 Dec -1.9 17:39:02 10° WNW 17:41:59 31° SW 17:44:55 10° SSE visible
14 Dec -0.7 17:31:42 10° W 17:33:44 16° SW 17:35:47 10° S visible
